TimeMST,TemperatureF,Dew PointF,Humidity,Sea Level PressureIn,VisibilityMPH,Wind Direction,Wind SpeedMPH,Gust SpeedMPH,PrecipitationIn,Events,Conditions,WindDirDegrees,DateUTC
12:15 AM,5.0,-4.0,66,30.04,10.0,NNW,8.1,-,N/A,,Mostly Cloudy,340,2013-12-04 07:15:00
12:35 AM,5.0,-2.2,72,30.04,10.0,North,6.9,-,N/A,,Partly Cloudy,360,2013-12-04 07:35:00
12:55 AM,5.0,-5.8,61,30.04,10.0,NNW,9.2,-,N/A,,Mostly Cloudy,330,2013-12-04 07:55:00
1:15 AM,5.0,-2.2,72,30.04,10.0,NE,13.8,-,N/A,,Scattered Clouds,50,2013-12-04 08:15:00
1:35 AM,5.0,-7.6,56,30.04,10.0,ENE,8.1,-,N/A,,Clear,70,2013-12-04 08:35:00
1:55 AM,3.2,-7.6,61,30.04,10.0,ESE,8.1,-,N/A,,Clear,110,2013-12-04 08:55:00
2:15 AM,3.2,-5.8,66,30.04,10.0,Calm,Calm,-,N/A,,Clear,0,2013-12-04 09:15:00
2:35 AM,3.2,-4.0,72,30.04,10.0,Calm,Calm,-,N/A,,Clear,0,2013-12-04 09:35:00
2:55 AM,3.2,-5.8,66,30.05,10.0,Calm,Calm,-,N/A,,Clear,0,2013-12-04 09:55:00
3:15 AM,1.4,-7.6,66,30.05,10.0,Calm,Calm,-,N/A,,Clear,0,2013-12-04 10:15:00
3:35 AM,1.4,-2.2,85,30.05,10.0,Calm,Calm,-,N/A,,Clear,0,2013-12-04 10:35:00
3:55 AM,1.4,-5.8,72,30.05,10.0,Calm,Calm,-,N/A,,Clear,0,2013-12-04 10:55:00
4:15 AM,1.4,-9.4,61,30.05,10.0,Calm,Calm,-,N/A,,Clear,0,2013-12-04 11:15:00
4:35 AM,1.4,-4.0,78,30.05,10.0,East,3.5,-,N/A,,Partly Cloudy,80,2013-12-04 11:35:00
4:55 AM,-0.4,-5.8,78,30.06,10.0,Calm,Calm,-,N/A,,Clear,0,2013-12-04 11:55:00
5:15 AM,1.4,-5.8,72,30.06,10.0,Calm,Calm,-,N/A,,Clear,0,2013-12-04 12:15:00
5:35 AM,-0.4,-7.6,72,30.07,10.0,SE,3.5,-,N/A,,Clear,140,2013-12-04 12:35:00
5:55 AM,-0.4,-7.6,72,30.07,10.0,Calm,Calm,-,N/A,,Clear,0,2013-12-04 12:55:00
6:15 AM,-0.4,-7.6,72,30.07,10.0,SE,3.5,-,N/A,,Clear,130,2013-12-04 13:15:00
6:35 AM,-0.4,-7.6,72,30.08,10.0,Calm,Calm,-,N/A,,Clear,0,2013-12-04 13:35:00
6:55 AM,-2.2,-9.4,71,30.09,10.0,Calm,Calm,-,N/A,,Clear,0,2013-12-04 13:55:00
7:15 AM,-2.2,-5.8,85,30.10,10.0,Calm,Calm,-,N/A,,Clear,0,2013-12-04 14:15:00
7:35 AM,-2.2,-9.4,71,30.11,10.0,Calm,Calm,-,N/A,,Clear,0,2013-12-04 14:35:00
7:55 AM,-2.2,-9.4,71,30.11,10.0,Calm,Calm,-,N/A,,Clear,0,2013-12-04 14:55:00
8:15 AM,-0.4,-5.8,78,30.11,10.0,Calm,Calm,-,N/A,,Clear,0,2013-12-04 15:15:00
8:35 AM,-2.2,-9.4,71,30.11,10.0,Calm,Calm,-,N/A,,Clear,0,2013-12-04 15:35:00
8:55 AM,-0.4,-5.8,78,30.12,10.0,Calm,Calm,-,N/A,,Clear,0,2013-12-04 15:55:00
9:15 AM,1.4,-5.8,72,30.12,10.0,Calm,Calm,-,N/A,,Clear,0,2013-12-04 16:15:00
9:35 AM,1.4,-7.6,66,30.13,10.0,Calm,Calm,-,N/A,,Clear,0,2013-12-04 16:35:00
9:55 AM,3.2,-5.8,66,30.13,10.0,Calm,Calm,-,N/A,,Clear,0,2013-12-04 16:55:00
10:15 AM,3.2,-2.2,78,30.14,10.0,Calm,Calm,-,N/A,,Clear,0,2013-12-04 17:15:00
10:35 AM,6.8,-2.2,67,30.14,10.0,NNE,5.8,-,N/A,,Clear,20,2013-12-04 17:35:00
10:55 AM,6.8,-7.6,52,30.14,10.0,NNE,3.5,-,N/A,,Clear,20,2013-12-04 17:55:00
11:15 AM,6.8,-7.6,52,30.14,10.0,ENE,3.5,-,N/A,,Clear,70,2013-12-04 18:15:00
11:35 AM,6.8,-4.0,61,30.14,10.0,Calm,Calm,-,N/A,,Clear,0,2013-12-04 18:35:00
11:55 AM,6.8,-5.8,56,30.13,10.0,Calm,Calm,-,N/A,,Clear,0,2013-12-04 18:55:00
12:15 PM,6.8,-5.8,56,30.12,10.0,WNW,4.6,-,N/A,,Clear,290,2013-12-04 19:15:00
12:35 PM,8.6,-4.0,57,30.11,10.0,Calm,Calm,-,N/A,,Clear,0,2013-12-04 19:35:00
12:55 PM,8.6,-9.4,44,30.11,10.0,Calm,Calm,-,N/A,,Clear,0,2013-12-04 19:55:00
1:15 PM,8.6,-5.8,52,30.10,10.0,WNW,3.5,-,N/A,,Clear,290,2013-12-04 20:15:00
1:35 PM,8.6,-2.2,62,30.10,10.0,ENE,3.5,-,N/A,,Clear,60,2013-12-04 20:35:00
1:55 PM,10.4,-7.6,44,30.09,10.0,East,3.5,-,N/A,,Clear,100,2013-12-04 20:55:00
2:15 PM,8.6,-7.6,48,30.08,10.0,ESE,3.5,-,N/A,,Clear,110,2013-12-04 21:15:00
2:35 PM,10.4,-4.0,52,30.08,10.0,North,4.6,-,N/A,,Clear,350,2013-12-04 21:35:00
2:55 PM,10.4,-7.6,44,30.08,10.0,Calm,Calm,-,N/A,,Clear,0,2013-12-04 21:55:00
3:15 PM,10.4,-5.8,48,30.08,10.0,Calm,Calm,-,N/A,,Clear,0,2013-12-04 22:15:00
3:35 PM,10.4,-7.6,44,30.08,10.0,Calm,Calm,-,N/A,,Clear,0,2013-12-04 22:35:00
3:55 PM,10.4,-5.8,48,30.08,10.0,Calm,Calm,-,N/A,,Clear,0,2013-12-04 22:55:00
4:15 PM,10.4,-5.8,48,30.08,10.0,Calm,Calm,-,N/A,,Clear,0,2013-12-04 23:15:00
4:35 PM,8.6,-7.6,48,30.08,10.0,Calm,Calm,-,N/A,,Clear,0,2013-12-04 23:35:00
4:55 PM,6.8,-5.8,56,30.08,10.0,SE,4.6,-,N/A,,Clear,140,2013-12-04 23:55:00
5:15 PM,6.8,-4.0,61,30.08,10.0,Calm,Calm,-,N/A,,Clear,0,2013-12-05 00:15:00
5:35 PM,5.0,-7.6,56,30.08,10.0,SE,3.5,-,N/A,,Clear,130,2013-12-05 00:35:00
5:55 PM,3.2,-4.0,72,30.08,10.0,Calm,Calm,-,N/A,,Clear,0,2013-12-05 00:55:00
6:15 PM,3.2,-4.0,72,30.09,10.0,Calm,Calm,-,N/A,,Clear,0,2013-12-05 01:15:00
6:35 PM,3.2,-2.2,78,30.09,10.0,Calm,Calm,-,N/A,,Clear,0,2013-12-05 01:35:00
6:55 PM,3.2,-5.8,66,30.09,10.0,SSE,3.5,-,N/A,,Clear,150,2013-12-05 01:55:00
7:15 PM,3.2,-7.6,61,30.10,10.0,SE,4.6,-,N/A,,Clear,140,2013-12-05 02:15:00
7:35 PM,1.4,-2.2,85,30.10,10.0,SE,4.6,-,N/A,,Clear,140,2013-12-05 02:35:00
7:55 PM,1.4,-4.0,78,30.11,10.0,SE,3.5,-,N/A,,Clear,140,2013-12-05 02:55:00
8:15 PM,1.4,-5.8,72,30.11,10.0,Calm,Calm,-,N/A,,Clear,0,2013-12-05 03:15:00
8:35 PM,1.4,-5.8,72,30.11,10.0,SSE,3.5,-,N/A,,Clear,160,2013-12-05 03:35:00
8:55 PM,-0.4,-5.8,78,30.11,10.0,Calm,Calm,-,N/A,,Clear,0,2013-12-05 03:55:00
9:15 PM,1.4,-2.2,85,30.11,10.0,Calm,Calm,-,N/A,,Clear,0,2013-12-05 04:15:00
9:35 PM,-0.4,-5.8,78,30.12,10.0,Calm,Calm,-,N/A,,Clear,0,2013-12-05 04:35:00
9:55 PM,-0.4,-9.4,66,30.13,10.0,SSE,3.5,-,N/A,,Clear,160,2013-12-05 04:55:00
10:15 PM,-0.4,-5.8,78,30.14,10.0,Calm,Calm,-,N/A,,Clear,0,2013-12-05 05:15:00
10:35 PM,-0.4,-4.0,85,30.14,10.0,West,4.6,-,N/A,,Clear,280,2013-12-05 05:35:00
10:55 PM,-0.4,-13.0,55,30.14,10.0,Calm,Calm,-,N/A,,Clear,0,2013-12-05 05:55:00
11:15 PM,-0.4,-4.0,85,30.14,10.0,Calm,Calm,-,N/A,,Clear,0,2013-12-05 06:15:00
11:35 PM,-2.2,-5.8,85,30.14,10.0,South,3.5,-,N/A,,Clear,180,2013-12-05 06:35:00
11:55 PM,-2.2,-11.2,66,30.14,9.0,Calm,Calm,-,N/A,,Partly Cloudy,0,2013-12-05 06:55:00